This demonstration page uses our WeatherBlox Daily Observations layout. Learn more.

Left ArrowRight Arrow

47.50024, -111.30081

Hourly Observations for April 29, 2018

Temp ( °F °C ) Dew Point ( °F °C ) Humidity (%) Winds ( mph kmh ) Pressure ( in mb ) Visibility ( mi km ) Precip ( " mm )
12:53 am 00:53 Clear 51 10.6 39 3.9 64 64 WSW 16 26 29.57 1002 10 16 0.00 0.00
1:53 am 01:53 Clear 47 8.3 38 3.3 71 71 W 7 11 29.62 1003 10 16 0.00 0.00
2:53 am 02:53 Clear 48 8.9 38 3.3 68 68 W 8 13 29.60 1002 10 16 0.00 0.00
3:53 am 03:53 Clear 46 7.8 38 3.3 73 73 WSW 10 17 29.62 1003 10 16 0.00 0.00
4:53 am 04:53 Clear 47 8.3 37 2.8 69 69 SW 21 33 29.61 1003 10 16 0.00 0.00
5:53 am 05:53 Clear 44 6.7 35 1.7 71 71 W 8 13 29.62 1003 10 16 0.00 0.00
6:53 am 06:53 Sunny 46 7.8 35 1.7 66 66 SW 18 30 29.65 1004 10 16 0.00 0.00
7:53 am 07:53 Sunny 49 9.4 35 1.7 59 59 SW 18 30 29.67 1005 10 16 0.00 0.00
8:53 am 08:53 Sunny 53 11.7 35 1.7 51 51 WSW 15 24 29.67 1005 10 16 0.00 0.00
9:53 am 09:53 Sunny 54 12.2 33 0.6 45 45 WSW 18 30 29.67 1005 10 16 0.00 0.00
10:53 am 10:53 Sunny 56 13.3 32 0 40 40 WSW 16 26 29.69 1005 10 16 0.00 0.00
11:53 am 11:53 Sunny 60 15.6 33 0.6 36 36 W 9 15 29.69 1005 10 16 0.00 0.00
12:53 pm 12:53 Sunny 61 16.1 31 -0.6 32 32 WNW 12 19 29.68 1005 10 16 0.00 0.00
1:53 pm 13:53 Mostly Sunny 63 17.2 30 -1.1 29 29 NNW 12 19 29.67 1005 10 16 0.00 0.00
2:53 pm 14:53 Mostly Cloudy 63 17.2 30 -1.1 29 29 NNW 16 26 29.66 1004 10 16 0.00 0.00
3:53 pm 15:53 Cloudy 60 15.6 36 2.2 41 41 N 25 41 29.69 1005 10 16 0.00 0.00
4:53 pm 16:53 Mostly Cloudy 57 13.9 36 2.2 45 45 N 25 41 29.72 1007 10 16 0.00 0.00
5:53 pm 17:53 Cloudy 53 11.7 36 2.2 52 52 NNW 21 33 29.77 1008 10 16 0.00 0.00
6:53 pm 18:53 Cloudy 50 10 35 1.7 57 57 N 20 31 29.84 1011 10 16 0.00 0.00
7:53 pm 19:53 Cloudy with Light Rain 45 7.2 38 3.3 77 77 NNW 15 24 29.86 1011 10 16 0.00 0.03
8:53 pm 20:53 Cloudy 44 6.7 36 2.2 73 73 NNW 18 30 29.89 1012 10 16 0.00 0.03
9:53 pm 21:53 Cloudy 42 5.6 35 1.7 76 76 NNW 15 24 29.93 1013 10 16 0.00 0.03
10:18 pm 22:18 Cloudy 42 5.6 35 1.7 76 76 NNW 20 31 29.94 1014 10 16 0.00 0.00
10:53 pm 22:53 Cloudy 41 5 35 1.7 79 79 NNW 17 28 29.94 1014 10 16 0.00 0.00
11:43 pm 23:43 Cloudy 41 5 34 1.1 76 76 N 16 26 29.97 1015 10 16 0.00 0.00
11:53 pm 23:53 Cloudy with Light Rain 41 5 34 1.1 76 76 N 12 19 29.93 1014 10 16 0.00 0.03

Powered by AerisWeather